World > North America > United States > Ohio

Hourly Coal Run, OH Regional Weather

Feedback E-mail the Weather

Quick WX

Coal Run, OH Weather Maps

°F °C°F °C
Coal Run Weather Map
UTC Time: 7/4/2022, 03:19
Your Time:

Coal Run, OH Regional Weather

Expires:202207040400;;643752
ASUS41 KCLE 040312
RWRCLE
OHIO REGIONAL WEATHER ROUNDUP
NATIONAL WEATHER SERVICE WILMINGTON, OH
1100 PM EDT SUN JUL 03 2022

NOTE: "FAIR" INDICATES FEW OR NO CLOUDS BELOW 12,000 FEET WITH NO
SIGNIFICANT WEATHER AND/OR OBSTRUCTIONS TO VISIBILITY.


OHZ036-037-039>041-045>050-054>059-063>069-073>076-082>088-040400-
  CENTRAL AND SOUTHEAST OHIO
  
CITY           SKY/WX    TMP DP  RH WIND       PRES   REMARKS
COLUMBUS       FAIR      77  59  53 E3        30.14R                  
OSU AIRPORT    FAIR      76  57  51 E5        30.15R                  
BOLTON FIELD   FAIR      73  58  60 CALM      30.16R                  
RICKENBACK AFB FAIR      74  59  59 SE3       30.14R                  
NEWARK         FAIR      72  61  68 CALM      30.15R                  
MARION         FAIR      71  57  61 E8        30.15R                  
LANCASTER      FAIR      69  62  78 CALM      30.15R                  
ZANESVILLE     FAIR      69  62  78 CALM      30.16R                  
NEW PHILLY     FAIR      68  61  78 CALM      30.17R                  
$$
  

SKY/WX - Weather  TMP - Temperature  DP - Dew Point  RH - Humidity
WIND - Wind Direction/Speed PRES - Barometric Pressure VSB - Visibility
WCI - Wind Chill Index E13G22 Wind - East Wind 13 mph/Gusts of 22 mph

Trending Headlines

Coal Run Radar Loop



Coal Run Quick Facts


National Two Day Weather Forecast


E-mail the Coal Run Weather Forecast

Voice your opinion or tell us about page issues...